Orange8 — JL6278 — position and weather

sailwx.info

Track history (hours):
 
Tides and Currents Weather Stations Pressure Air Temp Water Temp Dewpoint Dewpoint Depression Visibility Wind Speed Wind Dir Waves Ship Positions

Orange8

Last reported at 2014-Oct-20 22:31 UTC. Time now 2014-Oct-20 22:53 UTC.
Position N 34°37' E 135°26'.

Length 164 m; draft 5 m.

Type: Passenger vessel. MMSI: 431501603.

Date/timePositionNaut miles runAvg speedWind from/ knotsBaromVisibWave heightAir tempDewpointWater temp
2014-Oct-20 22:31N 34°37' E 135°26'0 0.0
2014-Oct-20 21:31N 34°37' E 135°26'6 6.2
2014-Oct-20 20:33N 34°36' E 135°19'1717.4
2014-Oct-20 19:33N 34°37' E 134°57'2 0.1
2014-Oct-19 14:29N 34°38' E 134°59'1617.2
2014-Oct-19 13:33N 34°37' E 135°19'6 6.0
2014-Oct-19 12:33N 34°37' E 135°26'0 0.0
2014-Oct-19 11:27N 34°37' E 135°26'0 0.0
2014-Oct-19 10:27N 34°37' E 135°26'0 0.0
2014-Oct-19 09:33N 34°37' E 135°26'0 0.0
2014-Oct-19 08:33N 34°37' E 135°26'0 0.0
2014-Oct-19 07:33N 34°37' E 135°26'0 0.0
2014-Oct-19 06:33N 34°37' E 135°26'0 0.0
2014-Oct-19 05:33N 34°37' E 135°26'0 0.0
2014-Oct-19 04:33N 34°37' E 135°26'0 0.0
2014-Oct-19 03:21N 34°37' E 135°26'0 0.0
2014-Oct-19 02:27N 34°37' E 135°26'0 0.0
2014-Oct-19 01:33N 34°37' E 135°26'0 0.0
2014-Oct-19 00:33N 34°37' E 135°26'0 0.0
2014-Oct-18 23:33N 34°37' E 135°26'0 0.0
2014-Oct-18 22:21N 34°37' E 135°26'0 0.0
2014-Oct-18 21:33N 34°37' E 135°26'7 6.7
2014-Oct-18 20:33N 34°36' E 135°18'1818.0
2014-Oct-18 19:33N 34°36' E 134°56'9 0.3
2014-Oct-17 15:11N 34°33' E 134°46'1117.7
2014-Oct-17 14:33N 34°37' E 134°58'1717.1
2014-Oct-17 13:33N 34°36' E 135°19'6 5.4
2014-Oct-17 12:29N 34°37' E 135°26'0 0.0
2014-Oct-17 11:29N 34°37' E 135°26'0 0.0
2014-Oct-17 10:29N 34°37' E 135°26'0 0.0
2014-Oct-17 09:05N 34°37' E 135°26'0 0.0
2014-Oct-17 08:23N 34°37' E 135°26'0 0.0
2014-Oct-17 07:23N 34°37' E 135°26'0 0.0
2014-Oct-17 06:29N 34°37' E 135°26'0 0.0
2014-Oct-17 05:29N 34°37' E 135°26'0 0.0
2014-Oct-17 04:29N 34°37' E 135°26'0 0.0
2014-Oct-17 03:17N 34°37' E 135°26'0 0.0
2014-Oct-17 02:29N 34°37' E 135°26'0 0.0
2014-Oct-17 01:11N 34°37' E 135°26'0 0.0
2014-Oct-17 00:23N 34°37' E 135°26'0 0.0
2014-Oct-16 23:29N 34°37' E 135°26'0 0.0
2014-Oct-16 22:29N 34°37' E 135°26'0 0.0
2014-Oct-16 21:29N 34°37' E 135°26'6 6.5
2014-Oct-16 20:33N 34°36' E 135°19'1918.5
2014-Oct-16 19:33N 34°36' E 134°56'12 0.4
2014-Oct-15 15:15N 34°32' E 134°43'1318.4
2014-Oct-15 14:34N 34°37' E 134°57'1717.3
2014-Oct-15 13:33N 34°36' E 135°18'6 5.9
2014-Oct-15 12:29N 34°37' E 135°26'0 0.0
2014-Oct-15 11:29N 34°37' E 135°26'0 0.0
2014-Oct-15 10:29N 34°37' E 135°26'0 0.0
2014-Oct-15 09:29N 34°37' E 135°26'0 0.0
2014-Oct-15 08:29N 34°37' E 135°26'0 0.0
2014-Oct-15 07:29N 34°37' E 135°26'0 0.0
2014-Oct-15 06:29N 34°37' E 135°26'0 0.0
2014-Oct-15 05:29N 34°37' E 135°26'0 0.0
2014-Oct-15 04:29N 34°37' E 135°26'0 0.0
2014-Oct-15 03:29N 34°37' E 135°26'0 0.0
2014-Oct-15 02:29N 34°37' E 135°26'0 0.0
2014-Oct-15 01:29N 34°37' E 135°26'0 0.0
2014-Oct-15 00:29N 34°37' E 135°26'0 0.0
2014-Oct-14 23:29N 34°37' E 135°26'0 0.0
2014-Oct-14 22:29N 34°37' E 135°26'0 0.0
2014-Oct-14 21:29N 34°37' E 135°26'5 5.2
2014-Oct-14 20:33N 34°36' E 135°20'1818.4
2014-Oct-14 19:33N 34°37' E 134°58'6 0.1
2014-Oct-13 01:26N 34°35' E 134°51'1416.6
2014-Oct-13 00:33N 34°36' E 135°09'1413.9
2014-Oct-12 23:33N 34°37' E 135°26'0 0.1
2014-Oct-12 22:29N 34°37' E 135°26'0 0.0
2014-Oct-12 21:29N 34°37' E 135°26'5 5.8
2014-Oct-12 20:34N 34°36' E 135°19'1918.3
2014-Oct-12 19:33N 34°36' E 134°57'1 0.0
2014-Oct-11 14:33N 34°37' E 134°57'1818.0
2014-Oct-11 13:33N 34°37' E 135°18'6 6.0
2014-Oct-11 12:32N 34°37' E 135°26'0 0.0
2014-Oct-11 11:32N 34°37' E 135°26'0 0.0
2014-Oct-11 10:32N 34°37' E 135°26'0 0.0
2014-Oct-11 09:32N 34°37' E 135°26'0 0.0
2014-Oct-11 08:32N 34°37' E 135°26'0 0.0
2014-Oct-11 07:32N 34°37' E 135°26'0 0.0
2014-Oct-11 06:32N 34°37' E 135°26'0 0.0
2014-Oct-11 05:26N 34°37' E 135°26'0 0.0
2014-Oct-11 04:32N 34°37' E 135°26'0 0.0
2014-Oct-11 03:32N 34°37' E 135°26'0 0.0
2014-Oct-11 02:32N 34°37' E 135°26'0 0.0
2014-Oct-11 01:32N 34°37' E 135°26'0 0.0
2014-Oct-11 00:32N 34°37' E 135°26'0 0.0
2014-Oct-10 23:08N 34°37' E 135°26'0 0.0
2014-Oct-10 22:32N 34°37' E 135°26'  
Track history (hours):
 
Tides and Currents Weather Stations Pressure Air Temp Water Temp Dewpoint Dewpoint Depression Visibility Wind Speed Wind Dir Waves Ship Positions

Orange8

Last reported at 2014-Oct-20 22:31 UTC. Time now 2014-Oct-20 22:53 UTC.
Position N 34°37' E 135°26'.

Length 164 m; draft 5 m.

Type: Passenger vessel. MMSI: 431501603.

Date/timePositionNaut miles runAvg speedWind from/ knotsBaromVisibWave heightAir tempDewpointWater temp
2014-Oct-20 22:31N 34°37' E 135°26'0 0.0
2014-Oct-20 21:31N 34°37' E 135°26'6 6.2
2014-Oct-20 20:33N 34°36' E 135°19'1717.4
2014-Oct-20 19:33N 34°37' E 134°57'2 0.1
2014-Oct-19 14:29N 34°38' E 134°59'1617.2
2014-Oct-19 13:33N 34°37' E 135°19'6 6.0
2014-Oct-19 12:33N 34°37' E 135°26'0 0.0
2014-Oct-19 11:27N 34°37' E 135°26'0 0.0
2014-Oct-19 10:27N 34°37' E 135°26'0 0.0
2014-Oct-19 09:33N 34°37' E 135°26'0 0.0
2014-Oct-19 08:33N 34°37' E 135°26'0 0.0
2014-Oct-19 07:33N 34°37' E 135°26'0 0.0
2014-Oct-19 06:33N 34°37' E 135°26'0 0.0
2014-Oct-19 05:33N 34°37' E 135°26'0 0.0
2014-Oct-19 04:33N 34°37' E 135°26'0 0.0
2014-Oct-19 03:21N 34°37' E 135°26'0 0.0
2014-Oct-19 02:27N 34°37' E 135°26'0 0.0
2014-Oct-19 01:33N 34°37' E 135°26'0 0.0
2014-Oct-19 00:33N 34°37' E 135°26'0 0.0
2014-Oct-18 23:33N 34°37' E 135°26'0 0.0
2014-Oct-18 22:21N 34°37' E 135°26'0 0.0
2014-Oct-18 21:33N 34°37' E 135°26'7 6.7
2014-Oct-18 20:33N 34°36' E 135°18'1818.0
2014-Oct-18 19:33N 34°36' E 134°56'9 0.3
2014-Oct-17 15:11N 34°33' E 134°46'1117.7
2014-Oct-17 14:33N 34°37' E 134°58'1717.1
2014-Oct-17 13:33N 34°36' E 135°19'6 5.4
2014-Oct-17 12:29N 34°37' E 135°26'0 0.0
2014-Oct-17 11:29N 34°37' E 135°26'0 0.0
2014-Oct-17 10:29N 34°37' E 135°26'0 0.0
2014-Oct-17 09:05N 34°37' E 135°26'0 0.0
2014-Oct-17 08:23N 34°37' E 135°26'0 0.0
2014-Oct-17 07:23N 34°37' E 135°26'0 0.0
2014-Oct-17 06:29N 34°37' E 135°26'0 0.0
2014-Oct-17 05:29N 34°37' E 135°26'0 0.0
2014-Oct-17 04:29N 34°37' E 135°26'0 0.0
2014-Oct-17 03:17N 34°37' E 135°26'0 0.0
2014-Oct-17 02:29N 34°37' E 135°26'0 0.0
2014-Oct-17 01:11N 34°37' E 135°26'0 0.0
2014-Oct-17 00:23N 34°37' E 135°26'0 0.0
2014-Oct-16 23:29N 34°37' E 135°26'0 0.0
2014-Oct-16 22:29N 34°37' E 135°26'0 0.0
2014-Oct-16 21:29N 34°37' E 135°26'6 6.5
2014-Oct-16 20:33N 34°36' E 135°19'1918.5
2014-Oct-16 19:33N 34°36' E 134°56'12 0.4
2014-Oct-15 15:15N 34°32' E 134°43'1318.4
2014-Oct-15 14:34N 34°37' E 134°57'1717.3
2014-Oct-15 13:33N 34°36' E 135°18'6 5.9
2014-Oct-15 12:29N 34°37' E 135°26'0 0.0
2014-Oct-15 11:29N 34°37' E 135°26'0 0.0
2014-Oct-15 10:29N 34°37' E 135°26'0 0.0
2014-Oct-15 09:29N 34°37' E 135°26'0 0.0
2014-Oct-15 08:29N 34°37' E 135°26'0 0.0
2014-Oct-15 07:29N 34°37' E 135°26'0 0.0
2014-Oct-15 06:29N 34°37' E 135°26'0 0.0
2014-Oct-15 05:29N 34°37' E 135°26'0 0.0
2014-Oct-15 04:29N 34°37' E 135°26'0 0.0
2014-Oct-15 03:29N 34°37' E 135°26'0 0.0
2014-Oct-15 02:29N 34°37' E 135°26'0 0.0
2014-Oct-15 01:29N 34°37' E 135°26'0 0.0
2014-Oct-15 00:29N 34°37' E 135°26'0 0.0
2014-Oct-14 23:29N 34°37' E 135°26'0 0.0
2014-Oct-14 22:29N 34°37' E 135°26'0 0.0
2014-Oct-14 21:29N 34°37' E 135°26'5 5.2
2014-Oct-14 20:33N 34°36' E 135°20'1818.4
2014-Oct-14 19:33N 34°37' E 134°58'6 0.1
2014-Oct-13 01:26N 34°35' E 134°51'1416.6
2014-Oct-13 00:33N 34°36' E 135°09'1413.9
2014-Oct-12 23:33N 34°37' E 135°26'0 0.1
2014-Oct-12 22:29N 34°37' E 135°26'0 0.0
2014-Oct-12 21:29N 34°37' E 135°26'5 5.8
2014-Oct-12 20:34N 34°36' E 135°19'1918.3
2014-Oct-12 19:33N 34°36' E 134°57'1 0.0
2014-Oct-11 14:33N 34°37' E 134°57'1818.0
2014-Oct-11 13:33N 34°37' E 135°18'6 6.0
2014-Oct-11 12:32N 34°37' E 135°26'0 0.0
2014-Oct-11 11:32N 34°37' E 135°26'0 0.0
2014-Oct-11 10:32N 34°37' E 135°26'0 0.0
2014-Oct-11 09:32N 34°37' E 135°26'0 0.0
2014-Oct-11 08:32N 34°37' E 135°26'0 0.0
2014-Oct-11 07:32N 34°37' E 135°26'0 0.0
2014-Oct-11 06:32N 34°37' E 135°26'0 0.0
2014-Oct-11 05:26N 34°37' E 135°26'0 0.0
2014-Oct-11 04:32N 34°37' E 135°26'0 0.0
2014-Oct-11 03:32N 34°37' E 135°26'0 0.0
2014-Oct-11 02:32N 34°37' E 135°26'0 0.0
2014-Oct-11 01:32N 34°37' E 135°26'0 0.0
2014-Oct-11 00:32N 34°37' E 135°26'0 0.0
2014-Oct-10 23:08N 34°37' E 135°26'0 0.0
2014-Oct-10 22:32N 34°37' E 135°26'  

Dump ship's entire track history